Powrót do katalogu

STARLINK-35865

AktywnyŁącznośćVLEO
NORAD 67826·PAYLOAD·🇺🇸 United States

Wystrzelony Feb 16, 2026 z Vandenberg Space Force Base

Loading…

Następne Przeloty (najbliższe 24 godziny)

TLE

ŚwieżeSource: CelesTrak SupGP

Epoka: Sep 15, 2026, 03:19 UTC

1 67826C 26033F   26258.13868056 -.00011669  00000+0 -42257-3 0  2588
2 67826  43.0029 277.1223 0001648 267.2375 251.8991 15.27589200    19

Śledź STARLINK-35865 w czasie rzeczywistym z AllMySat

Download on the App Store